Lorain / Elyria, OH

7:35 PM EST on December 10, 2017 (GMT -0500)
Lorain County Regional

Weather History for KLPR - January, 2014

Change the Weather History Date:

Thursday, January 2, 2014

  Actual Average (KCLE) Record (KCLE)
Temperature  
Mean Temperature 20 °F -  
Max Temperature 25 °F 35 °F 66 °F (1876)
Min Temperature 14 °F 22 °F -12 °F (1879)
Degree Days  
Heating Degree Days 46    
Moisture  
Dew Point 15 °F    
Average Humidity 77    
Maximum Humidity 82    
Minimum Humidity 62    
Precipitation  
Precipitation 0.00 in - - ()
Sea Level Pressure  
Sea Level Pressure 30.02 in    
Wind  
Wind Speed 15 mph (NE)    
Max Wind Speed 24 mph    
Max Gust Speed 33 mph    
Visibility 2 miles    
Events Fog , Snow    
Averages and records for this station are not official NWS values.
T = Trace of Precipitation, MM = Missing Value Source: NWS Daily Summary

Daily Weather History Graph

Daily Weather History Graph

Search for Another Location

Airport or City:

Trip Planner

Search our weather history database for the weather conditions in past years. The results will help you decide how hot, cold, wet, or windy it might be!

Date:

Astronomy

Jan. 02, 2014 Rise Set
Actual Time 7:54 AM EST 5:11 PM EST
Civil Twilight 7:23 AM EST 5:42 PM EST
Nautical Twilight 6:49 AM EST 6:16 PM EST
Astronomical Twilight 6:15 AM EST 6:50 PM EST
Moon 8:33 AM EST (1/2) 7:07 PM EST (1/2)
Length of Visible Light 10h 18m
Length of Day
9h 16m
New Moon, 2% of the Moon is Illuminated
Jan 2
New Moon
Jan 7
First Quarter
Jan 15
Full
Jan 24
Last Quarter
Jan 30
New

Hourly Weather History & Observations

Time (EST) Temp. Windchill Dew Point Humidity Pressure Visibility Wind Dir Wind Speed Gust Speed Precip Events Conditions
12:53 AM 24.1 °F 13.7 °F 19.0 °F 81% 30.13 in 1.2 mi ENE 10.4 mph - 0.00 in Snow Light Snow
1:13 AM 24.8 °F 14.6 °F 19.4 °F 80% 30.09 in 3.0 mi East 10.4 mph - 0.00 in Snow Light Snow
1:27 AM 24.8 °F 14.6 °F 19.4 °F 80% 30.08 in 6.0 mi East 10.4 mph - 0.00 in Snow Light Snow
1:53 AM 24.1 °F 13.7 °F 19.0 °F 81% 30.11 in 7.0 mi ENE 10.4 mph - 0.00 in Snow Light Snow
2:53 AM 25.0 °F 12.2 °F 19.9 °F 81% 30.10 in 4.0 mi East 16.1 mph 20.7 mph 0.00 in Snow Light Snow
3:02 AM 24.8 °F 12.9 °F 19.4 °F 80% 30.06 in 4.0 mi East 13.8 mph 19.6 mph 0.00 in Snow Light Snow
3:24 AM 24.8 °F 14.0 °F 19.4 °F 80% 30.05 in 6.0 mi ENE 11.5 mph 21.9 mph 0.00 in Snow Light Snow
3:44 AM 24.8 °F 12.9 °F 19.4 °F 80% 30.05 in 2.5 mi East 13.8 mph 20.7 mph 0.00 in Snow Light Snow
3:53 AM 25.0 °F 13.6 °F 19.0 °F 78% 30.08 in 2.0 mi East 12.7 mph - 0.00 in Snow Light Snow
4:04 AM 24.8 °F 14.6 °F 19.4 °F 80% 30.04 in 1.5 mi ENE 10.4 mph - 0.00 in Snow Light Snow
4:36 AM 24.8 °F 14.0 °F 19.4 °F 80% 30.03 in 2.0 mi East 11.5 mph 23.0 mph 0.00 in Snow Light Snow
4:53 AM 24.1 °F 11.5 °F 19.0 °F 81% 30.05 in 1.8 mi ENE 15.0 mph - 0.00 in Snow Light Snow
5:01 AM 24.8 °F 12.9 °F 19.4 °F 80% 30.01 in 2.0 mi ENE 13.8 mph - 0.00 in Snow Light Snow
5:53 AM 24.1 °F 13.1 °F 19.0 °F 81% 30.03 in 2.5 mi East 11.5 mph 20.7 mph 0.00 in Snow Light Snow
6:02 AM 24.8 °F 12.4 °F 19.4 °F 80% 29.99 in 1.5 mi East 15.0 mph - 0.00 in Snow Light Snow
6:42 AM 24.8 °F 11.5 °F 19.4 °F 80% 29.98 in 1.5 mi ENE 17.3 mph 21.9 mph 0.00 in Snow Light Snow
6:53 AM 24.1 °F 11.5 °F 19.0 °F 81% 30.01 in 1.5 mi ENE 15.0 mph - 0.00 in Snow Light Snow
7:53 AM 23.0 °F 10.6 °F 18.0 °F 81% 29.99 in 1.5 mi ENE 13.8 mph - 0.00 in Snow Light Snow
8:00 AM 23.0 °F 10.6 °F 17.6 °F 80% 29.95 in 1.5 mi East 13.8 mph - 0.00 in Snow Light Snow
8:19 AM 23.0 °F 10.6 °F 17.6 °F 80% 29.95 in 0.8 mi ENE 13.8 mph - 0.00 in Snow Light Snow
8:53 AM 23.0 °F 11.1 °F 18.0 °F 81% 29.99 in 0.8 mi ENE 12.7 mph - 0.00 in Snow Light Snow
9:20 AM 23.0 °F 10.6 °F 17.6 °F 80% 29.95 in 1.0 mi ENE 13.8 mph - 0.00 in Snow Light Snow
9:44 AM 24.8 °F 13.4 °F 19.4 °F 80% 29.95 in 0.8 mi ENE 12.7 mph - 0.00 in Snow Light Snow
9:53 AM 24.1 °F 12.5 °F 19.0 °F 81% 29.98 in 0.5 mi ENE 12.7 mph - 0.00 in Snow Snow
10:26 AM 24.8 °F 14.0 °F 19.4 °F 80% 29.93 in 0.5 mi NE 11.5 mph - 0.00 in Fog , Snow Snow
10:33 AM 24.8 °F 12.4 °F 19.4 °F 80% 29.91 in 0.2 mi ENE 15.0 mph 24.2 mph 0.00 in Fog , Snow Heavy Snow
10:53 AM 24.1 °F 10.1 °F 19.0 °F 81% 29.94 in 0.2 mi NE 18.4 mph 27.6 mph 0.00 in Snow Heavy Snow
11:02 AM 24.8 °F 10.0 °F 19.4 °F 80% 29.91 in 0.5 mi NE 21.9 mph 33.4 mph 0.00 in Snow Snow
11:09 AM 24.8 °F 11.9 °F 19.4 °F 80% 29.93 in 0.5 mi NE 16.1 mph 27.6 mph 0.00 in Snow Snow
11:17 AM 24.8 °F 11.9 °F 19.4 °F 80% 29.93 in 0.5 mi NE 16.1 mph 25.3 mph 0.00 in Snow Snow
11:53 AM 24.1 °F 9.4 °F 18.0 °F 77% 29.94 in 0.5 mi NE 20.7 mph 31.1 mph 0.00 in Snow Snow
12:53 PM 21.9 °F 5.8 °F 17.1 °F 82% 29.91 in 0.5 mi NE 23.0 mph 33.4 mph 0.00 in Snow Snow
1:53 PM 19.9 °F 2.8 °F 15.1 °F 81% 29.92 in 0.5 mi NNE 24.2 mph 31.1 mph 0.00 in Snow Snow
2:53 PM 19.9 °F 3.5 °F 14.0 °F 78% 29.92 in 0.5 mi NE 21.9 mph 29.9 mph 0.00 in   Haze
3:53 PM 19.0 °F 2.4 °F 12.9 °F 77% 29.95 in 0.5 mi NNE 21.9 mph 31.1 mph N/A   Haze
4:53 PM 17.1 °F 0.1 °F 12.0 °F 81% 29.98 in 0.8 mi NNE 20.7 mph 29.9 mph N/A   Haze
5:11 PM 15.8 °F -2.7 °F 10.4 °F 79% 29.95 in 1.0 mi NNE 24.2 mph 31.1 mph N/A   Haze
5:30 PM 15.8 °F -1.9 °F 10.4 °F 79% 29.96 in 2.0 mi NNE 21.9 mph 28.8 mph N/A   Haze
5:42 PM 15.8 °F -2.3 °F 8.6 °F 73% 29.98 in 1.8 mi NNE 23.0 mph 31.1 mph N/A   Haze
5:53 PM 16.0 °F -1.7 °F 9.0 °F 74% 30.02 in 1.8 mi NNE 21.9 mph 29.9 mph N/A   Haze
6:43 PM 15.8 °F -2.7 °F 10.4 °F 79% 30.00 in 1.0 mi NNE 24.2 mph 31.1 mph 0.00 in Snow Light Snow
6:53 PM 16.0 °F -2.1 °F 10.0 °F 77% 30.05 in 1.2 mi NNE 23.0 mph 31.1 mph 0.00 in Snow Light Snow
7:17 PM 15.8 °F -1.9 °F 8.6 °F 73% 30.02 in 1.5 mi NNE 21.9 mph 29.9 mph 0.00 in Snow Light Snow
7:48 PM 15.8 °F -1.5 °F 10.4 °F 79% 30.04 in 1.2 mi NNE 20.7 mph 26.5 mph 0.00 in Snow Light Snow
7:53 PM 15.1 °F -2.0 °F 9.0 °F 77% 30.09 in 1.2 mi NNE 19.6 mph 29.9 mph 0.00 in Snow Light Snow
8:09 PM 15.8 °F -1.5 °F 8.6 °F 73% 30.05 in 0.8 mi NNE 20.7 mph 27.6 mph 0.00 in Snow Light Snow
8:17 PM 15.8 °F -1.5 °F 8.6 °F 73% 30.05 in 1.2 mi NNE 20.7 mph 28.8 mph 0.00 in Snow Light Snow
8:44 PM 15.8 °F -2.3 °F 8.6 °F 73% 30.07 in 1.5 mi NNE 23.0 mph 29.9 mph 0.00 in Snow Light Snow
8:53 PM 15.1 °F -2.9 °F 7.0 °F 70% 30.11 in 1.8 mi NNE 21.9 mph 32.2 mph 0.00 in Snow Light Snow
9:00 PM 15.8 °F -1.5 °F 6.8 °F 68% 30.08 in 3.0 mi NNE 20.7 mph 32.2 mph 0.00 in Snow Light Snow
9:40 PM 15.8 °F -0.2 °F 6.8 °F 68% 30.08 in 2.5 mi NNE 17.3 mph 26.5 mph 0.00 in Snow Light Snow
9:53 PM 15.1 °F -3.3 °F 6.1 °F 68% 30.13 in 2.5 mi North 23.0 mph 27.6 mph 0.00 in Snow Light Snow
10:48 PM 15.8 °F 0.9 °F 6.8 °F 68% 30.11 in 4.0 mi North 15.0 mph 26.5 mph 0.00 in Snow Light Snow
10:53 PM 15.1 °F -1.6 °F 6.1 °F 68% 30.15 in 4.0 mi North 18.4 mph 25.3 mph 0.00 in Snow Light Snow
11:07 PM 14.0 °F -3.9 °F 3.2 °F 62% 30.11 in 3.0 mi North 20.7 mph 32.2 mph 0.00 in Snow Light Snow
11:44 PM 14.0 °F -3.9 °F 6.8 °F 73% 30.13 in 2.5 mi North 20.7 mph 24.2 mph 0.00 in Snow Light Snow
11:53 PM 14.0 °F -2.5 °F 6.1 °F 71% 30.17 in 2.5 mi North 17.3 mph 28.8 mph 0.00 in Snow Light Snow